Regional Weather Roundup
Issued by NWS Wakefield, VA

Home | Current Version | Previous Version | Graphics & Text | Print | Product List | Glossary On
Versions: 1 2 3 4 5 6 7 8 9 10 11 12 13 14 15 16 17 18 19 20 21 22 23 24 25 26 27 28 29 30 31 32 33 34 35 36 37 38 39 40 41 42 43 44 45 46 47 48 49 50
000
ASUS41 KAKQ 270710
RWRAKQ

REGIONAL WEATHER ROUNDUP
NATIONAL WEATHER SERVICE WAKEFIELD VA
300 AM EDT WED AUG 27 2014

Note: "fair" indicates few or no clouds below 12,000 feet with no
significant weather and/or obstructions to visibility. * = Denotes
station may not report precipitation (e.g., rain,snow,etc.),
thunder or fog.

VAZ042-051-052>054-056-270800-
NORTHERN VIRGINIA

CITY           SKY/WX    TMP DP  RH WIND       PRES   REMARKS
WASH NATIONAL  PTCLDY    72  65  78 CALM      30.06F
DULLES         CLEAR     63  61  93 CALM      30.07F
FORT BELVOIR   CLEAR     63  62  97 NW1       30.06F
QUANTICO       CLEAR     67  64  90 NW6       30.06F
FREDERICKSBRG* CLEAR     63  63 100 CALM      30.05F
STAFFORD*      CLEAR     61  61 100 NW3       30.10S FOG
WARRENTON      FOG       57  57 100 CALM      30.07S VSB 1/4
CULPEPER*      FOG      N/A N/A N/A CALM      30.08S VSB 1/2
MANASSAS*      CLOUDY    63  63 100 CALM      30.07S VSB<1/4
LEESBURG*      CLEAR     64  64 100 CALM      30.07F
WINCHESTER     CLEAR     63  59  88 SW3       30.08S
$$

VAZ048-049-060>072-079>083-270800-
CENTRAL AND SOUTH CENTRAL VIRGINIA...AND NORTH CENTRAL NORTH CAROLINA

CITY           SKY/WX    TMP DP  RH WIND       PRES   REMARKS
RICHMOND       CLEAR     63  59  87 CALM      30.06F
CHESTERFIELD*  SUNNY    N/A N/A N/A CALM      30.07F
HANOVER        CLEAR     59  58  96 CALM      30.07F
TAPPAHANNOCK*  CLEAR     59  56  91 CALM      30.06F
CHARLOTTSVILLE CLEAR     60  58  92 CALM      30.08S
ORANGE*        CLEAR     59  57  94 CALM      30.09S
LOUISA*        FOG       57  57 100 CALM      30.06S VSB 1/2
FARMVILLE*     FOG       59  57  94 CALM      30.06S VSB 1/4
SOUTH HILL*    CLEAR     61  61 100 CALM      30.12S
ROANOKE RAPIDS SUNNY     54  54 100 N5        30.06S FOG
RALEIGH        PTCLDY    63  59  87 CALM      30.07S
$$

VAZ088>098-270800-
SOUTHEAST VIRGINIA

CITY           SKY/WX    TMP DP  RH WIND       PRES   REMARKS
NORFOLK        PTCLDY    72  68  87 NE7       30.03F
VIRGINIA BEACH PTCLDY    71  69  93 NE5       30.02F
NORFOLK NAVAL  PTCLDY    73  68  84 NE7       30.05F
WEST POINT*    CLEAR     59  57  91 CALM      30.08S
NEWPORT NEWS   CLEAR     63  59  87 CALM      30.05S
LANGLEY AFB    PTCLDY    65  65  99 NW2       30.04S
FORT EUSTIS    CLEAR     64 N/A N/A CALM      30.03F
WILLIAMSBURG*  CLEAR     64  64 100 CALM      30.06S
FRANKLIN*      CLOUDY    57  57 100 CALM      30.05S
WAKEFIELD      CLEAR     57  54  89 CALM      30.06S
$$

VAZ020-022-025-037-045-270800-
WESTERN AND SOUTHWEST VIRGINIA

CITY           SKY/WX    TMP DP  RH WIND       PRES   REMARKS
STAUNTON*      PTCLDY    55  53  91 CALM      30.13F FOG
HOT SPRINGS VA CLEAR     55  49  79 W5        30.23S
LYNCHBURG      CLEAR     60  59  96 CALM      30.10F
DANVILLE       CLEAR     60  57  89 CALM      30.08F
MARTINSVILLE   CLEAR     55  55 100 CALM      30.12F
ROANOKE        CLEAR     59  57  93 CALM      30.14F
BLACKSBURG     PTCLDY    54  54 100 CALM      30.18F FOG
DUBLIN*        CLEAR     56  56 100 CALM      30.17F
MARION*        CLEAR    N/A N/A N/A CALM      30.21F HAZE
HILLSVILLE*    FOG       55  55 100 CALM      30.18F VSB 1/4
RICHLANDS*     SUNNY     64  57  79 SE3       30.17F
WISE*          CLEAR     61  54  77 CALM      30.18F
ABINGDON*      CLEAR     60  56  86 E6        30.16F
$$

MDZ021>025-VAZ099-100-270800-
SOUTHERN MARYLAND AND THE DELMARVA PENINSULA

CITY           SKY/WX    TMP DP  RH WIND       PRES   REMARKS
PATUXENT RIVER CLEAR     60  58  92 SW3       30.04F
BAY BRIDGE APT   N/A     68  63  83 CALM      30.05S
LEONARDTOWN    CLEAR     61  59  94 CALM      30.07S
DOVER          CLEAR     63  63 100 NW2       30.03F FOG
GEORGETOWN     MOCLDY    60  57  89 CALM      30.06S
EASTON         CLEAR     63  63 100 CALM      30.09S
CAMBRIDGE      CLEAR     61  59  94 CALM      30.05S
SALISBURY      FOG       61  57  88 CALM      30.06R VSB 1/2
OCEAN CITY     FOG       56  56 100 CALM      30.05F VSB 1
WALLOPS ISLAND PTCLDY    65  64  97 CALM      30.05F
ACCOMACK*      NOT AVBL
$$

NCZ012>017-030>032-270800-
EASTERN NORTH CAROLINA

CITY           SKY/WX    TMP DP  RH WIND       PRES   REMARKS
ELIZABETH CITY MOCLDY    70  68  94 N6        30.02F FOG
AHOSKIE*       PTCLDY    58  56  94 CALM      30.04F
EDENTON*       FOG       66  65  97 N5        30.02F VSB 1/2
CURRITUCK*     PTCLDY    73  70  90 NE3       30.02F
KILL DEVIL HLS PTCLDY    74  71  90 N7        29.99F
MANTEO         MOCLDY    73  71  91 N13       30.00F
CAPE HATTERAS  MOCLDY    74  73  97 NE10G20   29.96F
GOLDSBORO      CLEAR     64  64  98 NW5       30.01F
WASHINGTON     CLEAR     67  65  96 NE3       30.02F
GREENVILLE     CLEAR     63  61  94 CALM      30.04F
NEW BERN       PTCLDY    70  66  87 N9        30.01F
WILMINGTON     CLEAR     68  64  87 N8        30.00F
$$

VAZ048-270800-
ELSEWHERE

CITY           SKY/WX    TMP DP  RH WIND       PRES   REMARKS
HARRISBURG PA  PTCLDY    67  62  84 E3        30.05F
BALTIMORE      CLEAR     64  62  93 CALM      30.05F
ANNAPOLIS      CLEAR     70  65  84 CALM      30.05S
ANDREWS AFB    CLEAR     63  63  99 CALM      30.06S
WILMINGTON DE  CLEAR     65  61  87 N3        30.06F
PHILADELPHIA   CLEAR     70  63  78 SW5       30.06F
WILDWOOD NJ*   CLEAR     61  55  82 CALM      30.06S
ATLANTIC CITY  PTCLDY    58  57  97 CALM      30.05F
HENDERSON NC   FOG       62  60  95 CALM      30.07F VSB 1/2
GREENSBORO     CLEAR     63  59  87 CALM      30.08F
ROCKY MOUNT    CLEAR     59  58  96 CALM      30.05F
FAYETTEVILLE   CLEAR     65  62  90 N5        30.04F
CHARLOTTE      CLEAR     64  59  83 N6        30.09F
$$

VAZ100-270800-
MARINE

STATION/POSITION TIME  TEMP    WIND        PRES    WAVE   SWELL
                       AIR SEA DIR/SP/G            HT/PER HT/PER
                 (UTC) (F)     (DEG/KT/KT) (MB)    (FT/S) (FT/S)
44066 TX TWR #4  0700   71 72   CALM  /  2 1017.5F   4/ 9   3/ 9
CAPE MAY NJ      0700   67 80     CALM     1017.0F
LEWES DE         0700   66 76  260/  2/  2 1017.2R
15NM E FENWICK I 0700   72 73              1017.3F   4/ 8
OCEAN-CITY-INLET 0700   69 75   CALM  /  1 1017.1F
WACHAPREAGUE VA  0700   67 77   10/  3/  5 1017.4F
THOMAS POINT MD  0700   72 78  250/  6/  7 1018.6S
GOOSES REEF MD   0700   74     240/  4/  6 1018.0S
COVE POINT MD    0700   71     220/  3/  4 1017.4F
SOLOMONS ISLAND  0700      80                N/A
BISHOPS HEAD MD  0700   71 76  110/  3/  4 1017.1S
PINEY POINT MD   0700          270/  2/  4   N/A
POTOMAC MD       0700   74     130/  2/  4 1016.9S
CAMBRIDGE MD     0700   66 78   CALM  /  2 1017.3F
LEWISETTA VA     0700   68 77  250/  3/  3 1017.0F
RAPPAHANNOCK LGT 0700           60/  8/  8 1017.9S
STINGRAY PT      0700   73      80/  6/  8   N/A
YORK RVR RNG VA  0700   73      80/  7/  8 1016.9S
YORKTOWN VA      0700   72 79   20/  6/  7 1017.2R
JAMESTOWN VA     0700   68      70/  4/  4   N/A
DOMINION TERM VA 0700   71      30/  3/  4 1017.3S
KIPTOPEKE VA     0700      80   30/  4/  5   N/A
CHES BAY BRIDGE  0700   74 77   40/  9/ 12 1016.6R
CAPE HENRY VA    0700   73      40/  9/ 10 1015.7F
CHESAPEAKE LGHT  0600   73      50/ 11/ 13 1017.8F
WILLOUBY STN VA  0700   73      40/  6/  8 1015.9F
S CRANEY ISL VA  0700          360/  5/  7 1016.8S
CAPE HENRY BUOY  0700      76                N/A     5/ 8   2/11
1ST LANDING BUOY 0700   74      60/ 10/ 12 1016.7R
CAPE CHARLES BUO 0700      76                N/A     4/12   3/12
OFFSHORE WE BUOY 0700      75                N/A     5/12   5/12
64NM E OF VA BCH 0700   77 78   50/ 14/ 16 1015.5F   5/13   5/13
DUCK PIER NC     0700   75 76   30/ 13/ 14 1015.5F
44056 DUCK FRF   0700                        N/A     5/12   2/12
OREGON INLET NC  0700   75 78   30/ 13/ 18 1015.3F
HATTERAS NC      0700   76 78   30/ 15/ 21 1014.9S
DIAMOND SHLS NC  0700   77      10/ 19/ 25 1013.4F   8/10   5/10
CAPE LOOKOUT NC  0600   74      10/ 12/ 15 1014.9F
$$



USA.gov is the U.S. government's official web portal to all federal, state and local government web resources and services.